Wind_Speed
3 2 1 1 1 1 2 2 2 1 1 1 2 2 3 4 5 5 6 6 6 6 6 7 7 7 7 7 7 7 7 7 7 7 6 6 6 5 6 6 7 8 8
4 3 2 2 2 2 3 3 3 3 2 1 1 1 1 2 3 3 3 4 4 4 4 4 5 5 5 5 5 5 5 6 6 6 6 5 5 6 6 6 7 8 9
4 4 4 4 4 4 4 4 4 4 4 3 2 2 2 2 2 2 2 2 2 2 2 2 2 3 3 3 3 4 4 4 5 5 5 5 5 5 6 6 7 7 8
6 5 5 5 6 6 6 6 5 5 5 5 4 4 4 4 3 3 2 2 2 2 2 2 2 1 1 1 2 3 3 3 4 4 5 5 5 5 6 6 7 7 8
7 7 7 7 7 8 8 7 7 7 7 7 6 6 6 5 5 5 5 4 4 4 4 4 4 3 3 2 2 3 3 3 4 4 5 5 5 5 6 6 7 7 7
9 9 9 9 9 9 9 9 9 8 9 9 8 8 8 7 7 7 7 7 7 6 6 6 6 6 5 5 4 4 4 4 5 5 5 5 5 6 6 7 7 7 7
10 10 10 10 10 10 11 10 10 10 10 10 10 10 10 10 9 9 10 10 9 9 8 8 7 7 7 7 7 7 6 6 6 7 7 7 7 7 7 7 7 7 8
11 11 11 11 12 12 12 12 12 12 12 12 12 12 12 12 12 11 12 12 11 11 10 10 9 9 9 9 9 9 9 8 8 8 9 9 9 9 9 9 9 9 8
12 13 13 13 13 13 14 14 15 15 15 15 14 14 14 15 15 14 14 13 13 12 12 12 13 12 12 11 11 11 11 11 11 11 11 11 11 11 11 11 10 10 10
14 15 15 15 15 16 16 16 17 17 17 17 17 17 17 17 17 17 16 15 15 15 14 14 14 15 14 14 14 14 14 13 13 13 14 13 13 13 13 13 12 12 12
16 17 18 17 17 18 18 18 19 19 19 19 20 20 20 20 20 19 18 18 17 17 17 16 16 16 17 17 17 17 17 16 16 15 16 16 16 16 15 15 15 14 14
18 19 19 19 18 18 19 21 22 21 21 21 21 21 21 22 22 21 21 20 20 20 19 19 19 18 18 18 19 19 19 19 19 18 18 19 19 18 18 18 18 17 16
20 21 21 20 19 20 21 22 22 22 22 22 23 24 24 23 24 24 23 23 22 22 22 22 21 21 20 20 20 21 21 21 21 20 20 21 21 21 21 20 20 20 19
22 22 22 21 21 22 22 23 23 23 22 22 22 23 25 23 24 25 25 24 24 24 24 24 24 23 22 22 21 21 22 23 23 22 22 23 24 24 23 23 22 22 22
23 24 23 22 23 23 23 23 22 20 21 23 24 25 25 24 25 26 25 26 27 26 26 26 25 25 24 24 23 22 23 23 25 25 24 23 25 26 25 25 24 24 25
24 24 24 24 24 24 24 23 23 21 21 22 24 25 25 24 25 28 29 29 27 27 29 29 29 27 26 25 24 23 23 24 25 26 26 26 26 27 27 27 26 26 26
25 25 26 25 24 24 25 24 24 24 24 24 25 25 26 26 25 26 27 29 30 30 31 31 31 31 29 28 26 25 24 24 26 27 27 28 29 29 29 29 28 29 28
26 26 26 24 25 24 23 23 24 24 24 25 25 25 25 25 25 26 27 27 29 30 31 32 32 31 30 29 27 27 27 25 26 27 28 29 31 32 31 31 31 31 31
27 26 25 23 23 23 23 24 25 24 25 25 25 26 26 26 26 26 27 27 29 29 29 30 32 31 31 30 30 29 29 28 27 28 30 31 32 33 33 33 33 33 33
24 22 22 22 23 23 23 24 24 24 25 25 26 26 26 26 27 27 28 28 28 29 29 30 30 31 31 31 31 31 30 29 28 28 28 31 33 33 34 34 35 34 34
21 21 21 22 22 22 23 23 24 25 25 25 26 26 26 27 27 28 28 29 29 30 30 30 31 31 32 33 33 33 32 32 30 29 29 31 32 33 34 35 35 36 36
21 21 21 21 22 22 23 23 24 25 26 26 26 27 27 28 28 29 30 31 31 32 32 33 33 34 34 35 34 34 34 34 33 31 32 33 33 35 35 36 36 37 38
19 20 20 21 22 22 23 24 25 26 26 26 26 27 27 28 29 29 30 31 32 33 34 35 35 35 36 36 36 36 36 35 35 34 34 35 35 36 36 37 37 38 39
19 20 21 22 23 23 24 24 25 25 26 26 27 27 28 28 29 30 30 31 32 34 34 35 36 37 37 38 38 38 37 37 38 37 36 37 37 38 37 37 38 39 40
19 20 20 21 22 22 23 23 24 24 25 26 27 27 28 29 30 30 31 32 33 34 35 36 36 37 38 38 39 39 39 39 39 39 38 38 38 39 39 38 38 40 40
19 20 21 21 22 22 23 23 23 24 25 26 27 28 29 30 31 31 32 33 34 35 36 37 37 38 38 39 40 40 40 40 40 40 40 40 40 40 41 39 39 41 41
Wind_Direction
9 358 352 351 332 310 299 298 294 274 227 148 123 114 113 112 109 106 100 95 93 87 79 75 76 77 78 80 85 91 94 94 93 94 96 100 105 109 109 112 114 111 113
357 339 327 308 289 282 282 285 286 276 265 247 216 182 156 142 131 126 117 108 105 102 94 84 76 77 81 86 90 95 100 102 102 100 102 106 110 115 117 117 116 116 116
333 327 311 298 285 275 272 275 280 278 269 261 250 239 231 219 198 173 158 147 139 141 137 120 103 92 88 93 103 106 110 114 116 115 114 115 121 126 127 126 124 123 124
316 313 305 293 285 277 272 271 273 272 266 263 259 254 250 244 241 231 221 212 212 214 216 209 194 175 152 124 132 135 135 136 138 137 132 129 132 135 137 136 134 133 134
307 304 300 294 286 281 276 272 272 268 264 262 261 259 256 250 248 247 244 240 238 239 239 232 227 222 216 208 194 185 177 170 170 167 156 149 147 147 147 147 147 147 147
301 300 296 291 285 281 277 274 272 269 263 260 258 258 257 255 253 250 246 245 245 247 249 244 237 233 228 225 219 214 208 199 195 194 184 172 166 164 164 162 160 161 162
302 301 296 290 284 281 278 273 270 267 264 261 258 256 256 256 253 251 248 248 249 250 252 250 247 242 238 233 228 224 221 218 211 208 204 194 188 183 180 178 175 173 174
303 301 298 291 284 280 275 271 268 265 262 262 261 259 258 255 252 252 251 251 249 248 249 250 249 246 243 240 235 231 228 226 222 217 215 209 203 198 193 190 187 183 183
300 299 298 292 285 279 275 272 269 266 264 261 260 259 259 257 255 254 254 251 249 248 249 250 250 248 246 245 242 239 237 234 229 223 220 216 211 208 204 199 196 193 190
296 298 298 292 285 281 277 272 271 268 265 263 261 260 259 258 255 254 252 249 249 249 250 251 252 249 248 247 246 243 241 239 235 228 223 220 217 215 212 207 202 199 196
296 297 298 290 286 282 278 274 270 270 266 265 262 262 261 259 256 255 251 248 250 251 252 253 256 256 252 250 249 246 243 241 238 233 227 224 222 219 217 213 208 204 201
297 296 296 291 289 285 280 276 273 271 270 267 264 263 262 260 257 255 252 251 251 253 255 255 257 258 256 253 250 247 244 243 240 236 230 226 225 222 220 217 213 210 207
293 293 292 290 287 286 282 279 276 274 273 273 267 266 264 262 259 257 256 254 254 256 258 259 260 260 258 256 254 250 248 246 244 239 232 228 227 225 222 220 217 214 211
292 291 289 288 288 288 285 280 278 278 279 276 271 270 267 265 262 258 255 257 257 257 259 260 261 261 261 259 256 254 250 247 245 242 237 233 229 226 225 223 221 217 214
290 292 290 286 285 285 287 282 279 279 281 279 274 273 274 271 266 261 257 259 258 257 258 260 261 262 261 259 256 254 250 247 244 244 240 236 232 228 226 226 224 222 218
289 289 289 285 283 281 284 285 284 281 281 278 277 274 271 271 271 264 261 260 260 260 260 260 260 259 259 257 257 254 251 249 245 243 241 236 232 229 228 227 226 224 221
287 287 289 287 286 287 285 282 282 282 284 282 282 279 275 274 274 268 265 262 262 263 260 259 259 258 258 259 258 256 254 251 246 242 239 236 232 230 229 228 228 226 222
289 288 288 286 286 286 285 284 283 283 282 280 281 282 281 279 278 273 270 268 266 265 263 260 259 258 258 260 258 256 256 255 249 244 241 238 235 232 231 231 230 229 225
289 287 286 286 285 286 287 287 285 285 284 282 281 282 282 279 278 274 272 271 269 268 266 262 258 256 256 258 258 257 255 255 253 248 243 238 236 234 233 233 232 229 228
292 290 288 289 291 291 290 289 288 287 285 283 283 282 282 279 278 275 271 269 269 268 267 263 258 256 256 256 257 255 254 254 253 250 247 242 239 237 235 234 232 230 228
299 297 295 294 294 294 292 292 290 289 288 287 285 283 282 279 276 273 271 269 267 266 265 264 259 257 256 255 255 254 254 253 251 248 247 244 241 240 236 234 234 232 230
303 302 302 299 298 297 296 295 293 291 290 289 286 283 282 280 277 274 271 269 267 266 264 262 260 257 256 254 254 253 252 252 250 247 245 244 243 240 237 237 237 234 231
306 306 305 303 302 300 299 297 295 293 291 289 287 285 283 282 279 277 273 271 268 266 264 262 260 258 257 255 253 253 252 250 249 247 245 243 242 241 240 238 237 234 232
311 309 309 308 306 304 302 299 297 296 293 291 290 288 286 284 282 279 276 273 270 267 264 263 261 259 258 256 253 252 251 249 247 246 245 243 241 240 240 239 238 235 233
318 316 313 312 310 308 306 304 301 299 297 295 293 290 288 286 284 281 278 275 271 268 265 263 261 259 257 256 254 252 251 250 247 245 244 243 241 239 238 238 237 236 233
319 317 316 315 314 312 309 306 304 302 300 298 296 293 291 289 286 284 281 277 273 270 266 263 261 259 257 256 254 253 251 250 248 245 243 242 241 239 237 237 236 235 234
Height
5917 5916 5916 5915 5915 5914 5914 5913 5912 5912 5911 5911 5910 5909 5909 5908 5908 5907 5907 5907 5906 5906 5906 5905 5905 5904 5904 5904 5903 5903 5903 5902 5902 5902 5902 5902 5902 5902 5902 5902 5903 5903 5903
5916 5915 5915 5915 5914 5913 5913 5912 5912 5911 5910 5910 5909 5909 5909 5908 5908 5907 5907 5907 5906 5906 5906 5906 5905 5905 5905 5904 5904 5904 5903 5903 5903 5903 5903 5903 5903 5903 5904 5904 5904 5905 5905
5915 5914 5914 5913 5913 5913 5912 5912 5911 5910 5910 5909 5908 5908 5908 5908 5907 5907 5907 5906 5906 5906 5906 5906 5905 5905 5905 5905 5904 5904 5904 5904 5904 5904 5903 5904 5904 5904 5905 5905 5906 5906 5907
5913 5912 5912 5912 5912 5911 5911 5910 5910 5909 5908 5908 5907 5907 5907 5907 5906 5906 5906 5906 5906 5905 5905 5905 5905 5905 5905 5905 5904 5904 5904 5904 5904 5904 5904 5904 5904 5905 5905 5906 5907 5907 5908
5912 5911 5910 5910 5910 5909 5909 5908 5908 5907 5907 5906 5906 5906 5905 5905 5905 5905 5905 5905 5905 5905 5904 5904 5904 5904 5904 5904 5904 5904 5904 5904 5904 5904 5904 5905 5905 5905 5906 5907 5908 5908 5909
5910 5909 5908 5907 5907 5907 5906 5906 5906 5905 5905 5905 5904 5904 5904 5904 5904 5903 5903 5903 5903 5903 5903 5903 5903 5903 5903 5904 5904 5904 5904 5904 5904 5905 5904 5905 5905 5906 5907 5907 5908 5909 5910
5908 5907 5906 5905 5905 5904 5904 5903 5903 5903 5903 5902 5902 5902 5902 5902 5901 5901 5901 5901 5902 5902 5902 5902 5902 5902 5902 5902 5903 5903 5903 5904 5904 5904 5904 5905 5905 5906 5907 5907 5908 5909 5910
5906 5905 5903 5903 5902 5902 5901 5901 5900 5900 5900 5899 5899 5899 5899 5899 5899 5899 5899 5899 5899 5899 5899 5900 5900 5900 5900 5901 5901 5902 5902 5902 5903 5903 5904 5904 5905 5906 5906 5907 5908 5909 5911
5903 5902 5901 5900 5899 5899 5898 5898 5897 5897 5897 5896 5896 5896 5896 5896 5896 5896 5896 5896 5896 5896 5897 5897 5897 5897 5898 5898 5899 5900 5900 5901 5901 5902 5902 5903 5904 5905 5906 5907 5908 5909 5910
5901 5900 5898 5897 5896 5895 5895 5894 5894 5893 5893 5893 5892 5892 5892 5892 5892 5892 5892 5892 5893 5893 5893 5893 5894 5894 5894 5895 5896 5897 5898 5898 5899 5900 5900 5902 5902 5903 5905 5906 5907 5908 5909
5898 5897 5895 5894 5892 5891 5891 5890 5889 5889 5889 5888 5888 5888 5888 5888 5888 5888 5888 5888 5889 5889 5889 5890 5890 5891 5891 5891 5892 5893 5894 5895 5896 5897 5898 5899 5900 5902 5903 5904 5905 5907 5908
5895 5893 5892 5890 5889 5887 5886 5885 5885 5884 5884 5883 5883 5882 5882 5882 5882 5883 5883 5884 5884 5885 5885 5886 5886 5887 5887 5887 5888 5888 5890 5891 5892 5893 5895 5896 5898 5899 5900 5902 5903 5905 5907
5891 5890 5888 5887 5885 5884 5882 5881 5880 5879 5879 5878 5877 5877 5876 5877 5877 5877 5878 5878 5879 5880 5880 5881 5881 5882 5882 5883 5883 5884 5885 5886 5888 5889 5891 5893 5894 5896 5897 5899 5901 5903 5904
5887 5885 5884 5883 5881 5880 5878 5877 5875 5874 5873 5873 5872 5871 5871 5871 5871 5871 5872 5872 5873 5874 5874 5875 5876 5877 5877 5878 5878 5879 5880 5881 5883 5884 5886 5888 5890 5892 5894 5896 5898 5899 5902
5882 5881 5880 5878 5877 5875 5874 5872 5870 5869 5868 5868 5867 5866 5865 5865 5865 5865 5865 5866 5867 5868 5869 5870 5870 5871 5871 5872 5873 5873 5874 5876 5877 5879 5881 5883 5885 5888 5890 5892 5894 5896 5898
5878 5876 5875 5873 5871 5869 5868 5866 5865 5864 5863 5862 5862 5860 5859 5859 5858 5858 5859 5860 5861 5862 5862 5863 5864 5864 5865 5866 5867 5867 5868 5870 5871 5873 5875 5878 5880 5883 5885 5887 5889 5892 5894
5873 5871 5870 5868 5866 5864 5862 5860 5859 5858 5857 5856 5856 5855 5854 5854 5853 5852 5853 5854 5854 5854 5855 5856 5857 5858 5859 5860 5861 5861 5862 5863 5865 5867 5869 5872 5874 5877 5880 5882 5885 5887 5890
5867 5865 5864 5862 5861 5858 5856 5855 5854 5852 5851 5851 5850 5850 5848 5847 5847 5847 5847 5847 5846 5847 5847 5848 5850 5850 5852 5853 5854 5855 5856 5857 5859 5860 5862 5865 5868 5870 5873 5876 5879 5882 5884
5862 5859 5858 5857 5855 5853 5851 5850 5848 5847 5846 5845 5844 5843 5842 5841 5841 5841 5841 5840 5840 5840 5840 5841 5842 5843 5845 5846 5847 5848 5849 5851 5852 5854 5856 5858 5861 5864 5866 5870 5872 5875 5879
5855 5854 5853 5851 5849 5847 5846 5844 5842 5841 5840 5839 5838 5837 5835 5835 5834 5834 5834 5833 5833 5833 5833 5833 5834 5836 5837 5838 5839 5841 5843 5844 5845 5847 5849 5851 5854 5857 5860 5862 5866 5869 5872
5850 5849 5847 5845 5843 5841 5840 5838 5836 5835 5833 5832 5831 5830 5828 5828 5827 5827 5826 5826 5826 5825 5826 5826 5827 5828 5829 5831 5832 5834 5835 5836 5837 5839 5842 5844 5847 5850 5853 5855 5859 5862 5866
5845 5843 5841 5840 5838 5836 5834 5832 5830 5828 5826 5825 5823 5822 5821 5820 5819 5818 5818 5817 5817 5817 5818 5818 5819 5820 5821 5822 5824 5825 5827 5829 5830 5832 5834 5837 5840 5842 5845 5848 5851 5855 5858
5841 5839 5837 5835 5833 5830 5828 5826 5824 5822 5820 5818 5816 5815 5813 5812 5811 5810 5809 5809 5808 5808 5809 5809 5810 5811 5812 5813 5815 5817 5818 5820 5822 5824 5826 5829 5831 5834 5838 5840 5843 5847 5851
5837 5835 5832 5830 5827 5824 5822 5819 5817 5815 5813 5811 5809 5807 5805 5804 5802 5801 5800 5800 5799 5799 5799 5799 5800 5801 5802 5803 5805 5806 5808 5811 5813 5815 5818 5820 5823 5826 5829 5832 5836 5839 5843
5833 5830 5828 5825 5822 5819 5816 5813 5811 5808 5806 5803 5801 5799 5797 5795 5794 5792 5791 5790 5790 5789 5789 5789 5790 5791 5792 5793 5794 5796 5798 5800 5802 5805 5808 5811 5814 5817 5820 5824 5827 5831 5835
5830 5827 5824 5820 5817 5814 5811 5808 5805 5802 5799 5797 5794 5791 5789 5787 5785 5783 5781 5780 5779 5778 5778 5778 5779 5780 5781 5782 5784 5785 5787 5790 5792 5795 5798 5801 5804 5808 5811 5815 5819 5823 5826